Di, 25. Juni 2019 @ 16:49 (Europe/Berlin) | Zeitzone Wählen

Suche

Suche

Finde die Ligen und Manschaften schnell

Vergleich

Vergleich

Hier Klicken h2h um die Manschaften zu vergleichen und statistiken anzuzeigen

Spiele

Spiele

Schau dir die Heutige, Morgige, Gestrige Spiele mit Hilfe des Kalenders an


Gratis Tippen!

Spiele - 09.10.2018

Gruppierung: Nach Meisterschaften | Nach Zeit
Zeit Heim Ergebnis Gast 1 X 2 H2H
 Fußball Argentinien Primera Division 2018/2019
02:00 Colon Santa Fe 1 : 0 Newell's 2.38 2.88 3.25
 Eishockey CHL Kontinental Hockey League 2018/2019
11:30 Admiral Vladivostok 2 : 3 Red Star Kunlun 2.78 3.88 2.24
11:30 Chabarovsk Amur 3 : 1 Čeljabinsk 2.45 3.95 2.47
14:30 Novosibirsk 1 : 2 ot Slovan Bratislava 1.91 4.13 3.35
15:30 Barys Astana 3 : 1 Dinamo Riga 1.58 4.99 4.38
16:00 Ufa 3 : 2 Omsk 2.78 4.09 2.20
18:30 Nižněkamsk 4 : 1 Spartak Moskva 2.20 4.02 2.83
 Handball Dänemark 1st League W 2018/2019
19:30 FCK Handbold 34 : 21 Skanderborg 1.03 23.67 16.00
 Eishockey Dänemark SuperBest-ligaen 2018/2019
19:00 Totempo Hvidovre HVIK 1 : 6 Fredrikshavn 3.87 4.88 1.63
 Eishockey Eishockey NHL 2018/2019
04:00 Anaheim 3 : 2 ot(p) Detroit 1.77 4.13 3.97
 Fußball England FA Cup 2018/2019
20:45 Guiseley 2 : 1 Cleethorpes Town 1.21 5.80 10.44
20:45 Poole Town 2 : 1 Horsham 1.43 4.30 6.67
20:45 Dorking Wanderers 0 : 3 Gloucester City 2.83 3.28 2.30
20:45 Metropolitan Police 1 : 0 ot Tiverton 2.66 3.67 2.28
20:45 Coalville 3 : 4 ot St Neots Town 1.52 3.97 5.37
20:45 Hanwell Town 0 : 1 ot Leatherhead 3.63 3.67 1.84
20:45 Bristol Manor Farm 0 : 4 Slough 7.00 4.67 1.37
 Fußball England LDV Trophy 2018/2019
20:00 Walsall 3 : 1 Middlesbrough U23 1.44 4.33 6.01
20:00 Cambridge 4 : 0 Southampton U23 2.01 3.44 3.59
20:00 Shrewsbury 6 : 0 Tranmere 1.57 3.81 5.28
20:30 Bradford 1 : 4 Oldham 2.91 3.14 2.30
20:30 Plymouth 0 : 3 Swindon 2.07 3.32 3.17
20:30 Doncaster 2 : 0 Grimsby 1.52 4.02 5.21
20:45 Scunthorpe 1 : 2(p) Lincoln 2.27 3.32 2.76
20:45 Blackpool 1 : 2 West Bromwich U23 1.25 5.38 8.89
20:45 Morecambe 1 : 2 Stoke U23 2.82 3.52 2.16
20:45 Oxford 1 : 2 Northampton 1.69 3.59 4.43
20:45 Bristol Rovers 2 : 0 Yeovil 1.75 3.54 4.09
20:45 Mansfield 2 : 1 Wolves U23 1.75 3.58 3.98
20:45 Accrington Stanley 4 : 1 Macclesfield 1.45 4.22 5.97
20:45 Luton 3 : 0 Milton Keynes 1.70 3.69 4.17
20:45 Peterborough 2 : 3(p) Brighton U23 1.28 5.21 8.83
20:45 Colchester 2 : 0 Southend 2.51 3.27 2.53
20:45 Notts County 0 : 2 Newcastle U23 1.74 3.66 4.05
20:45 Fleetwood Town 0 : 2 Rochdale 2.52 3.31 2.56
20:45 Stevenage 0 : 8 Charlton 3.05 3.37 2.09
20:45 Gillingham 0 : 4 Tottenham U23 1.51 4.13 5.17
20:45 Crawley Town 0 : 1 Portsmouth 5.84 4.20 1.46
20:45 Port Vale 1 : 0 Burton 3.16 3.43 2.07
20:45 Sunderland 3 : 1 Carlisle 1.61 3.78 4.74
20:45 Coventry 2 : 1(p) Forest Green 1.96 3.39 3.38
 Basketball FIBA EuroCup M 2018/2019
20:00 Partizan Belgrad 89 : 82 Triumph Lyubertsy 1.87 14.00 2.10
20:30 Villeurbanne Asvel Lyon 75 : 61 Pallacanestro Trento 1.15 22.00 6.00
20:45 Unicaja Malaga 91 : 64 Frankfurt Skyliners 1.09 26.00 7.80
 Basketball FIBA Euroleague W 2018/2019
17:00 Olympiakos Pireus 63 : 63 Wisla Krakow TS 2.37 15.00 1.67
18:30 Riga TTT 67 : 56 Venezia 1.79 14.00 2.17
 Fußball Frankreich National 2018/2019
20:00 Pau 2 : 0 Chambly 2.84 2.95 2.40
 Eishockey Hockey CL Champions Hockey League 2018/2019
17:00 Plzeň 6 : 4 Banská Bystrica 1.34 6.00 6.17
17:30 Třinec 2 : 3 Storhamar 1.37 5.92 5.58
18:00 Kärpät 3 : 2 Hradec Králové 1.36 5.67 6.08
18:00 IFK Helsinki 1 : 5 Skelleftea AIK 2.38 4.20 2.40
18:00 TPS Turku 3 : 1 Junost Minsk 1.38 5.83 5.67
18:30 Vaxjö Lakers HC 3 : 1 Cardiff 1.11 11.00 13.00
18:30 Djurgarden IF 3 : 5 Tappara Tampere 1.83 4.48 3.25
18:30 Frolunda 6 : 0 Aalborg 1.13 9.33 12.67
19:30 München 3 : 2 Malmo IF 2.32 4.28 2.45
19:45 SC Curych 7 : 4 CE Wien 1.52 5.18 4.38
19:45 Lugano 2 : 0 Jyp Jyväskylä 2.54 4.31 2.21
 Basketball Kroatien A1 M 2018/2019
18:00 Bosco Zagreb 88 : 101 Zadar KK 15.00 - 1.01
 Eishockey Norwegen Eliteserien 2018/2019
18:30 Sapsborg Sparta 5 : 0 Ringerike IHK 1.15 8.92 11.00
19:00 Valerenga Oslo 4 : 0 Frisk/Asker 1.97 4.57 2.88
 Eishockey Österreich Eishockey Liga 2018/2019
18:30 Znojmo 2 : 1 Klagenfurt 3.43 4.72 1.74
 Handball Österreich HLA M 2018/2019
19:30 Schwaz 23 : 26 Bregenz Handball A1 2.73 8.58 1.67
 Handball Polen 1.liga M 2018/2019
18:00 Gdynia 27 : 31 Wisla Plock SSA 15.33 30.67 1.01
20:15 Kielce Vive KS 36 : 27 Kwidzyn MMTS 1.02 49.00 39.67
 Eishockey Polen Ekstraliga 2018/2019
18:00 Podhale Nowy Targ 8 : 0 Polsko 20 1.05 15.50 18.00
 Fußball Rumänien Liga II 2018/2019
15:00 Buftea CS 4 : 1 Pandurii 1.52 4.53 6.50
18:30 Petrolul Ploiesti 6 : 2 Luceafarul Oradea 1.12 6.78 15.06
 Basketball Russland 1st League W 2018/2019
14:10 Krasnoyarsk Shelen 65 : 62 Inventa Kursk 1.36 16.00 3.35
 Eishockey Schweiz Nationalliga A 2018/2019
19:45 Servette GE 2 : 1 ot(p) Lausanne 1.92 4.46 3.08
 Eishockey Schweiz Nationalliga B 2018/2019
19:45 Olten 4 : 3 ot Thurgau 1.61 4.94 3.70
19:45 Kloten 1 : 5 Chaux de Fonds 1.83 4.80 2.91
19:45 Academy Zug EVZ 1 : 6 Visp 3.82 4.88 1.58
20:00 Ticino Rockets 1 : 3 GCK Lions 2.77 4.77 1.89
 Fußball Slowakei Cup 2018/2019
15:00 Košice FC 1 : 0 Dubnica 2.50 3.34 2.45
 Eishockey Slowakei Extraliga 2018/2019
17:00 Slovensko 20 1 : 3 Poprad 15.50 10.75 1.10
18:00 Zvolen 6 : 3 Liptovský Mikuláš 1.37 5.81 5.69
 Handball Spanien Asobal M 2018/2019
20:30 Benidorm 22 : 33 FC Barcelona 17.50 31.00 1.01
 Eishockey Sweden Allsvenskan 2018/2019
19:00 Tingsryds AIF 5 : 3 Vita H 1.95 4.03 3.25
 Handball Sweden Elitserien M 2018/2019
19:00 Alingsas HK 35 : 22 Önnereds HK 1.07 20.00 12.33
 Eishockey Tschechei 1st League 2018/2019
17:30 České Budějovice 5 : 1 Havířov 1.24 6.42 7.25
 Eishockey Tschechei Extraleague 2018/2019
18:30 Sparta Praha 5 : 2 Karlovy Vary 1.40 5.63 5.50